Weather Roundup
Issued by NWS Chicago, IL

Home | Current Version | Previous Version | Graphics & Text | Print | Product List | Glossary On
Versions: 1 2 3 4 5 6 7 8 9 10 11 12 13 14 15 16 17 18 19 20 21 22 23 24 25 26 27 28 29 30 31 32 33 34 35 36 37 38 39 40 41 42 43 44 45 46 47 48 49 50
000
NZUS59 KLOT 260708
HRRLOT

CHICAGO AREA WEATHER ROUNDUP
NATIONAL WEATHER SERVICE CHICAGO/ROMEOVILLE IL
200 AM CDT TUE JUL 26 2016

NOTE: "FAIR" INDICATES FEW OR NO CLOUDS BELOW 12,000 FEET WITH NO
SIGNIFICANT WEATHER AND/OR OBSTRUCTIONS TO VISIBILITY.

* THESE STATIONS ARE NOT UNDER NWS QUALITY CONTROL. THEY ALSO MAY NOT
  REPORT WEATHER SUCH AS PRECIPITATION OR FOG.

ILZ005-006-012>014-019>023-260800-
NORTHEAST ILLINOIS

CITY           SKY/WX    TMP DP  RH WIND       PRES   REMARKS
OHARE          PTCLDY    74  64  71 CALM      30.03S
MIDWAY         MOCLDY    77  63  61 E3        30.02F
AURORA         CLEAR     67  65  93 CALM      30.04S
LANSING*       CLOUDY    72  65  78 CALM      30.03S
JOLIET*        MOCLDY    70  70  98 CALM      30.02S
WAUKEGAN       CLEAR     65  62  90 CALM      30.02F
DUPAGE AIRPORT CLEAR     69  64  84 N3        30.03F
WHEELING       CLEAR     71  65  81 CALM      30.04S
KANKAKEE*      PTCLDY    70  68  95 CALM      30.03F
MORRIS*        PTCLDY    69  67  93 CALM      30.01F
LEWIS AIRPORT* CLEAR     69  64  83 CALM      30.03S
NORTHERLY ISL    N/A     72  65  78 CALM        N/A
$$

WIZ051-052-058>065-066-070>072-260800-
SOUTHEAST WISCONSIN

CITY           SKY/WX    TMP DP  RH WIND       PRES   REMARKS
MILWAUKEE      CLEAR     70  63  78 NW3       30.03S
KENOSHA*       PTCLDY    66  62  87 CALM      30.04S
RACINE*        CLEAR     69  63  81 W3        30.05S
BURLINGTON     CLEAR     63  62  99 CALM      30.04S
WAUKESHA       CLEAR     64  63  94 CALM      30.05F
$$

INZ001>003-010>013-019-020-260800-
NORTHWEST INDIANA

CITY           SKY/WX    TMP DP  RH WIND       PRES   REMARKS
GARY*          PTCLDY    69  69 100 CALM      30.04S
MICHIGAN CITY* NOT AVBL
RENSSELAER*    NOT AVBL
VALPARAISO     CLOUDY    68  65  90 CALM      30.04S
$$

LMZ740>746-260800-
SOUTHERN LAKE MICHIGAN

STATION/POSITION TIME  SKY/WX   TEMP WIND        PRES    VSBY
                                AIR  DIR/SP/G
                 (UTC)          (F)  (DEG/KT/KT) (MB)    (MI)
HARRISON CRIB    0600            76  170/  3/  3   N/A
BURNHAM HARBOR   0700            71     CALM       N/A
CALUMET HARBOR   0600            74   CALM  /  1 1016.3R
BURNS HARBOR     0700            76   CALM  /  4 1017.3S
MICHIGAN CITY    0600            74  130/  4/  4   N/A
$$

ABBREVIATIONS USED IN REMARKS
   TC - TEMPERATURE IN CELSIUS
  WCI - WIND CHILL INDEX
   HX - HEAT INDEX
  VSB - VISIBILITY
$$




USA.gov is the U.S. government's official web portal to all federal, state and local government web resources and services.